User: anonymous   Login
Location: Charleston
(38.3500°N, 81.6330°W)
Time: 11:21:59
(UTC-04:00)
Language:

Cosmos 2228 - Orbit

View from above orbital plane
View from above orbital plane
View from above satellite
View from above satellite

Ground track
Ground track

The orbit data is extracted from the following two-line orbital elements,

1 22286U 92094A   16177.61018986  .00000233  00000-0  22945-4 0  9999
2 22286  82.5206 350.2357 0019586 221.8846 138.0874 14.87467572269481
Epoch (UTC): 25 June 2016 14:38:40
Eccentricity: 0.0019586
inclination: 82.5206°
perigee height: 592 km
apogee height: 619 km
right ascension of ascending node: 350.2357°
argument of perigee: 221.8846°
revolutions per day: 14.87467572
mean anomaly at epoch: 138.0874°
orbit number at epoch: 26948

The dashed part of the orbit path shows where the satellite is in the earth's shadow,  

DLR